[[{"header":{"parameterUnit":"m.s-1","parameterCategory":2,"la1":30.2991,"la2":30.254,"lo1":-89.0895,"lo2":-89.0444,"dy":0.0017,"dx":0.0017,"nx":28,"ny":28,"refTime":"2025-04-17T03:00:00:Z","depth":"0","parameterNumber":2,"parameterNumberName":"U-component_of_CURRENTS"},"data":[0,0,0,0,0,0,0,0,0,0,0,0,0,0,0,0,0,0,0,0,0,0,0,0,0,0,0,0,0,0,0,0,0,0,0,0,0,0,0,0,0,0,0,0,0,0,0,0,0,0,0,0,0,0,0,0,0,0,-0.2719,-0.2719,0,-0.2766,-0.2767,-0.2767,-0.2739,-0.2738,-0.2736,-0.2735,-0.2706,-0.2707,-0.2707,0,0,0,0,0,0,0,0,0,0,0,0,0,-0.2592,-0.2594,-0.2719,-0.2719,-0.272,-0.2766,-0.2767,-0.2767,-0.2739,-0.2737,-0.2736,-0.2735,-0.2706,-0.2707,-0.2707,0,0,0,0,0,0,0,0,0,0,0,0,0,-0.2641,-0.2595,-0.2718,-0.2714,-0.2714,-0.2766,-0.2767,-0.2767,-0.2739,-0.2737,-0.2736,-0.2734,-0.2706,-0.2707,-0.2707,-0.2742,0,0,-0.2708,-0.2708,0,0,0,0,0,0,0,0,-0.2638,-0.2645,-0.2714,-0.2714,-0.2715,-0.2748,-0.2712,-0.2756,-0.2739,-0.2726,-0.2735,-0.2733,-0.2716,-0.2716,-0.2725,-0.2741,-0.2739,-0.2708,-0.2708,-0.2709,-0.2709,0,0,0,0,0,0,0,-0.2635,-0.2643,-0.2734,-0.2715,-0.2716,-0.2706,-0.2711,-0.272,-0.2726,-0.2727,-0.2726,-0.2737,-0.2715,-0.2725,-0.2724,-0.2739,-0.2708,-0.2709,-0.2709,-0.2709,-0.2765,-0.2766,0,0,0,0,0,0,-0.2638,-0.264,-0.2733,-0.2736,-0.2675,-0.271,-0.2715,-0.2736,-0.2728,-0.2726,-0.2738,-0.2736,-0.2725,-0.2724,-0.2723,-0.2745,-0.2709,-0.2709,-0.2709,-0.2764,-0.2765,-0.2767,0,0,0,0,0,0,-0.2635,-0.2646,-0.2731,-0.2691,-0.2701,-0.2714,-0.2738,-0.2738,-0.2741,-0.2737,-0.2733,-0.2741,-0.2724,-0.2722,-0.2733,-0.2744,-0.2709,-0.2709,-0.2762,-0.2764,-0.2766,-0.2801,0,0,0,0,0,0,-0.2632,-0.2645,-0.2656,-0.2692,-0.2704,-0.2768,-0.274,-0.274,-0.2752,-0.2749,-0.2739,-0.2734,-0.2722,-0.2733,-0.2734,-0.2744,-0.271,-0.2761,-0.2763,-0.2766,-0.2798,-0.2804,-0.2809,0,0,0,0,0,-0.2627,-0.2654,-0.2656,-0.2667,-0.272,-0.277,-0.2775,-0.2776,-0.2754,-0.2769,-0.2758,-0.2734,-0.2748,-0.2735,-0.2735,-0.2745,-0.276,-0.2763,-0.2765,-0.2796,-0.2803,-0.2808,0,0,0,0,0,0,-0.2601,-0.2656,-0.2658,-0.2698,-0.2733,-0.2766,-0.2779,-0.278,-0.2785,-0.2773,-0.2755,-0.2752,-0.2766,-0.2758,-0.2743,-0.2771,-0.2749,-0.2752,-0.2772,-0.2779,-0.2784,-0.2775,-0.271,0,0,0,0,0,-0.2604,-0.2636,-0.2684,-0.2713,-0.2733,-0.2754,-0.277,-0.2778,-0.2792,-0.2792,-0.2785,-0.2778,-0.2783,-0.278,-0.2787,-0.2804,-0.2788,-0.2811,-0.2817,-0.2821,-0.2816,-0.2807,-0.2811,-0.2776,-0.2776,-0.2776,0,0,-0.2599,-0.2634,-0.265,-0.271,-0.2731,-0.277,-0.2759,-0.2794,-0.2815,-0.2789,-0.2804,-0.28,-0.2794,-0.2812,-0.2817,-0.2802,-0.2825,-0.2825,-0.2828,-0.282,-0.2811,-0.2814,-0.2816,-0.2778,-0.2778,-0.2778,0,0,-0.2613,-0.2641,-0.2674,-0.2711,-0.2759,-0.278,-0.2792,-0.283,-0.2833,-0.286,-0.2842,-0.2843,-0.2855,-0.2849,-0.2847,-0.2887,-0.2857,-0.2892,-0.2905,-0.2897,-0.2899,-0.2901,-0.2892,-0.2893,-0.2889,-0.2889,-0.2889,0,-0.26,-0.2653,-0.2689,-0.2734,-0.276,-0.2785,-0.2822,-0.2843,-0.2876,-0.2879,-0.2867,-0.2878,-0.2869,-0.2881,-0.2892,-0.2896,-0.2887,-0.2878,-0.2902,-0.2903,-0.2904,-0.2895,-0.2895,-0.2891,-0.2891,-0.2891,-0.2891,0,-0.2642,-0.2683,-0.2708,-0.2769,-0.2805,-0.2844,-0.2885,-0.2907,-0.2909,-0.292,-0.2935,-0.2929,-0.2927,-0.2931,-0.292,-0.293,-0.2921,-0.2912,-0.2881,-0.2909,-0.2898,-0.2898,-0.2894,-0.2893,-0.2893,-0.2892,0,0,-0.2603,-0.2715,-0.2718,-0.2751,-0.2825,-0.2857,-0.29,-0.2941,-0.2954,-0.2973,-0.2979,-0.2987,-0.2973,-0.297,-0.2959,-0.295,-0.2951,-0.2934,-0.2932,-0.2916,-0.2935,-0.2861,-0.2853,-0.2945,-0.2945,-0.2945,-0.2927,0,-0.2614,-0.27,-0.2752,-0.2813,-0.2855,-0.2899,-0.2936,-0.2974,-0.2991,-0.3006,-0.2999,-0.3004,-0.2992,-0.2985,-0.2978,-0.2961,-0.295,-0.2957,-0.2917,-0.2916,-0.2839,-0.285,-0.2734,-0.2701,-0.2926,-0.2926,-0.2926,0,-0.2622,-0.2683,-0.2751,-0.2836,-0.2856,-0.2893,-0.2943,-0.2981,-0.3016,-0.3027,-0.3033,-0.3029,-0.3025,-0.3004,-0.2985,-0.2991,-0.2963,-0.2946,-0.2945,-0.2858,-0.284,-0.2708,-0.2691,-0.2676,-0.2924,-0.2924,-0.2924,0,-0.2563,-0.2669,-0.2719,-0.2752,-0.2856,-0.288,-0.2922,-0.2974,-0.3004,-0.3031,-0.3046,-0.3046,-0.304,-0.3016,-0.2981,-0.2984,-0.295,-0.2949,-0.2858,-0.2853,-0.2736,-0.272,-0.2686,-0.2925,-0.2925,-0.2925,-0.2925,0,-0.2547,-0.2582,-0.2695,-0.2723,-0.2769,-0.2847,-0.2887,-0.293,-0.2985,-0.3008,-0.3042,-0.3049,-0.3042,-0.3024,-0.2989,-0.2916,-0.2955,-0.2854,-0.2839,-0.2746,-0.2732,-0.2698,-0.2724,-0.2924,-0.2924,-0.2924,-0.2924,0,-0.2469,-0.255,-0.261,-0.2717,-0.2745,-0.2771,-0.2869,-0.2892,-0.2963,-0.2991,-0.3,-0.3049,-0.3022,-0.3005,-0.2962,-0.2916,-0.2809,-0.2822,-0.2713,-0.2683,-0.2572,-0.2605,-0.2555,-0.2482,-0.2718,-0.2716,-0.2715,0,-0.2437,-0.2461,-0.2577,-0.2597,-0.2641,-0.2702,-0.2736,-0.2849,-0.2882,-0.2978,-0.2975,-0.2991,-0.2951,-0.288,-0.2803,-0.272,-0.2726,-0.2582,-0.2558,-0.2541,-0.2567,-0.2598,-0.2542,-0.2427,-0.2423,-0.242,-0.2417,0,-0.2346,-0.2388,-0.243,-0.2489,-0.2531,-0.2592,-0.2656,-0.2695,-0.2812,-0.2844,-0.2863,-0.2843,-0.2797,-0.2664,-0.2583,-0.2518,-0.252,-0.2512,-0.252,-0.2351,-0.2356,-0.2285,-0.248,-0.2389,-0.2392,-0.2394,-0.2395,-0.2396,-0.2242,-0.2248,-0.2298,-0.2339,-0.2394,-0.2435,-0.2429,-0.2514,-0.255,-0.2555,-0.2666,-0.2581,-0.2551,-0.2407,-0.2356,-0.224,-0.2303,-0.218,-0.2227,-0.2265,-0.2168,-0.2298,-0.2173,-0.2175,-0.2176,-0.2177,-0.2178,0,-0.2082,-0.2102,-0.2136,-0.218,-0.2178,-0.2267,-0.2321,-0.2264,-0.224,-0.2285,-0.227,-0.2242,-0.2149,-0.2138,-0.207,-0.1989,-0.1946,-0.1956,-0.1977,-0.1935,-0.2056,-0.2015,-0.1818,-0.1818,-0.1818,-0.1818,-0.1818,-0.1818,-0.199,-0.1954,-0.1987,-0.1934,-0.1964,-0.1893,-0.1886,-0.1811,-0.1783,-0.17,-0.1694,-0.1714,-0.1832,-0.2062,-0.1993,-0.19,-0.1869,-0.1814,-0.1852,-0.1957,-0.1983,-0.2007,-0.1973,-0.1771,-0.1771,-0.1647,-0.1647,-0.1646]},{"header":{"parameterUnit":"m.s-1","parameterCategory":2,"la1":30.2991,"la2":30.254,"lo1":-89.0895,"lo2":-89.0444,"dy":0.0017,"dx":0.0017,"nx":28,"ny":28,"refTime":"2025-04-17T03:00:00:Z","depth":"0","parameterNumber":3,"parameterNumberName":"V-component_of_CURRENTS"},"data":[0,0,0,0,0,0,0,0,0,0,0,0,0,0,0,0,0,0,0,0,0,0,0,0,0,0,0,0,0,0,0,0,0,0,0,0,0,0,0,0,0,0,0,0,0,0,0,0,0,0,0,0,0,0,0,0,0,0,-0.0064,-0.0063,0,0.0028,0.0029,0.003,0.0097,0.0098,0.0098,0.0098,0.0239,0.0242,0.0246,0,0,0,0,0,0,0,0,0,0,0,0,0,-0.0119,-0.0118,-0.0064,-0.0063,-0.0062,0.0028,0.0029,0.0031,0.0097,0.0098,0.0098,0.0098,0.0238,0.0242,0.0246,0,0,0,0,0,0,0,0,0,0,0,0,0,-0.0066,-0.0118,-0.0064,-0.0019,-0.0015,0.0027,0.0029,0.0031,0.0097,0.0098,0.0098,0.0099,0.0237,0.0242,0.0247,0.0267,0,0,0.0262,0.0264,0,0,0,0,0,0,0,0,-0.0069,-0.0064,-0.0027,-0.0022,-0.0017,0.005,0.0061,0.0112,0.0097,0.0057,0.0098,0.0099,0.0179,0.0188,0.0207,0.0274,0.028,0.0263,0.0266,0.0268,0.0269,0,0,0,0,0,0,0,-0.0073,-0.0067,-0.0025,-0.0026,-0.002,0.0017,0.0025,0.0072,0.0116,0.006,0.0065,0.0072,0.0182,0.0202,0.0211,0.0282,0.0263,0.0267,0.027,0.0272,0.0384,0.0384,0,0,0,0,0,0,-0.0092,-0.0071,-0.0028,-0.0023,-0.0045,0.0017,0.0026,0.003,0.0115,0.0127,0.0071,0.0074,0.0193,0.0205,0.0216,0.0243,0.0268,0.0273,0.0276,0.0384,0.0384,0.0384,0,0,0,0,0,0,-0.0094,-0.009,-0.0032,-0.0046,-0.0036,0.0017,0.0021,0.0031,0.005,0.0122,0.0136,0.0079,0.0194,0.0209,0.0254,0.0249,0.0275,0.028,0.0384,0.0384,0.0384,0.0298,0,0,0,0,0,0,-0.0096,-0.0091,-0.0098,-0.0048,-0.0036,-0.0019,0.002,0.0032,0.0052,0.0058,0.0133,0.0147,0.0195,0.0245,0.0259,0.0256,0.0284,0.0385,0.0384,0.0384,0.0301,0.0295,0.029,0,0,0,0,0,-0.0098,-0.0117,-0.0099,-0.0094,-0.0047,-0.002,-0.0011,0.0031,0.0052,0.0052,0.0107,0.0144,0.0254,0.0249,0.0265,0.0264,0.0385,0.0384,0.0384,0.0304,0.0296,0.029,0,0,0,0,0,0,-0.0146,-0.011,-0.009,-0.0097,-0.0065,-0.001,-0.0008,0.0024,0.0067,0.0073,0.0144,0.0161,0.0198,0.0243,0.0236,0.0297,0.0325,0.0328,0.0259,0.0253,0.0247,0.0233,0.0288,0,0,0,0,0,-0.0161,-0.0163,-0.0119,-0.0125,-0.0113,-0.0061,-0.0045,-0.0016,0.0029,0.0049,0.0103,0.0161,0.0209,0.0239,0.0286,0.032,0.037,0.033,0.0325,0.0319,0.0319,0.0382,0.0381,0.0383,0.0383,0.0383,0,0,-0.0182,-0.0162,-0.0164,-0.0135,-0.0106,-0.0099,-0.005,-0.0034,-0.0022,0.0058,0.0088,0.0141,0.0213,0.0249,0.027,0.0287,0.0346,0.0319,0.0314,0.0317,0.0381,0.0381,0.0381,0.0383,0.0383,0.0383,0,0,-0.0229,-0.0207,-0.0225,-0.0203,-0.0171,-0.0135,-0.0135,-0.0083,-0.0054,-0.0019,0.0041,0.0091,0.0162,0.0215,0.0251,0.0245,0.031,0.0259,0.0225,0.0285,0.0285,0.0286,0.0349,0.0356,0.026,0.026,0.026,0,-0.0258,-0.0271,-0.0226,-0.0236,-0.0225,-0.0157,-0.017,-0.0131,-0.007,-0.0045,-0.0023,0.0092,0.0148,0.0205,0.0202,0.0232,0.0277,0.0241,0.0277,0.0279,0.0281,0.0345,0.0354,0.0256,0.0256,0.0257,0.0257,0,-0.0315,-0.0323,-0.0332,-0.0318,-0.0299,-0.03,-0.0241,-0.0214,-0.0169,-0.0121,-0.006,0.0022,0.0092,0.0117,0.0159,0.0204,0.0235,0.0256,0.0289,0.0275,0.0344,0.0355,0.025,0.0251,0.0252,0.0253,0,0,-0.0387,-0.0377,-0.0379,-0.0388,-0.0344,-0.0336,-0.031,-0.0266,-0.0246,-0.0174,-0.0138,-0.0051,0.0004,0.0048,0.0114,0.017,0.0224,0.0213,0.0218,0.0266,0.0361,0.042,0.0439,0.025,0.0251,0.0252,0.0402,0,-0.0447,-0.0492,-0.0458,-0.0487,-0.0504,-0.0432,-0.0413,-0.0358,-0.0295,-0.024,-0.0138,-0.008,-0.0024,0.0012,0.0075,0.0188,0.0249,0.0182,0.0376,0.0382,0.0428,0.0452,0.0515,0.0658,0.0413,0.0415,0.0417,0,-0.0515,-0.0536,-0.0584,-0.0574,-0.0572,-0.0569,-0.052,-0.0492,-0.039,-0.0337,-0.0252,-0.0163,-0.006,-0.0016,0.0169,0.0123,0.0231,0.032,0.0328,0.0421,0.0461,0.0634,0.0688,0.0891,0.0434,0.0433,0.0432,0,-0.0601,-0.062,-0.0664,-0.0663,-0.064,-0.0636,-0.061,-0.0527,-0.0498,-0.0392,-0.0351,-0.0216,-0.0135,0.0005,0.0197,0.0183,0.0406,0.0412,0.0571,0.0577,0.069,0.0703,0.0958,0.054,0.054,0.054,0.0539,0,-0.0685,-0.0717,-0.071,-0.0738,-0.0776,-0.0719,-0.0725,-0.0673,-0.0588,-0.0545,-0.041,-0.0332,-0.0127,0.0034,0.0188,0.0424,0.0406,0.0577,0.0624,0.0662,0.0671,0.09,0.0956,0.0545,0.0544,0.0543,0.0542,0,-0.0777,-0.0772,-0.0826,-0.0824,-0.0825,-0.0851,-0.0814,-0.0806,-0.0711,-0.0647,-0.0613,-0.0409,-0.0187,0.0031,0.0288,0.0426,0.0762,0.0719,0.0753,0.0801,0.1117,0.1162,0.1427,0.1541,0.0912,0.0914,0.0916,0,-0.083,-0.0871,-0.0908,-0.0942,-0.0946,-0.0965,-0.0971,-0.0888,-0.0856,-0.0682,-0.0647,-0.0415,-0.0214,0.019,0.047,0.0768,0.0898,0.0989,0.0972,0.1163,0.1249,0.127,0.1346,0.1094,0.1097,0.11,0.1102,0,-0.093,-0.094,-0.0981,-0.106,-0.109,-0.1108,-0.1093,-0.1081,-0.0953,-0.0834,-0.063,-0.0449,-0.0052,0.0345,0.0721,0.0893,0.1139,0.1053,0.1256,0.142,0.1457,0.1578,0.0962,0.1126,0.1124,0.1122,0.1121,0.112,-0.0991,-0.1046,-0.1099,-0.1167,-0.1207,-0.1214,-0.1174,-0.1103,-0.0993,-0.0719,-0.0605,-0.0207,0.026,0.0819,0.1006,0.1443,0.1361,0.1582,0.1625,0.1632,0.1739,0.1171,0.1377,0.1376,0.1375,0.1374,0.1374,0,-0.1057,-0.1111,-0.1196,-0.125,-0.1293,-0.128,-0.1217,-0.1078,-0.0879,-0.0611,-0.0331,0.0304,0.0813,0.1244,0.179,0.2021,0.2047,0.2129,0.2194,0.2247,0.1775,0.1782,0.208,0.208,0.2079,0.2079,0.2079,0.2079,-0.109,-0.1182,-0.1226,-0.1306,-0.1325,-0.1249,-0.1173,-0.0912,-0.0649,-0.0138,0.0301,0.0606,0.1152,0.2001,0.2531,0.2565,0.276,0.2717,0.2816,0.2511,0.2463,0.2418,0.2444,0.2875,0.2876,0.3296,0.33,0.3303]}],[{"header":{"parameterUnit":"m.s-1","parameterCategory":2,"la1":30.2991,"la2":30.254,"lo1":-89.0895,"lo2":-89.0444,"dy":0.0017,"dx":0.0017,"nx":28,"ny":28,"refTime":"2025-04-17T03:00:00:Z","depth":"2","parameterNumber":2,"parameterNumberName":"U-component_of_CURRENTS"},"data":[0,0,0,0,0,0,0,0,0,0,0,0,0,0,0,0,0,0,0,0,0,0,0,0,0,0,0,0,0,0,0,0,0,0,0,0,0,0,0,0,0,0,0,0,0,0,0,0,0,0,0,0,0,0,0,0,0,0,-0.2594,-0.2594,0,-0.264,-0.2641,-0.2641,-0.2618,-0.2617,-0.2617,-0.2616,-0.2594,-0.2594,-0.2595,0,0,0,0,0,0,0,0,0,0,0,0,0,-0.2476,-0.2478,-0.2594,-0.2594,-0.2595,-0.264,-0.2641,-0.2641,-0.2619,-0.2617,-0.2616,-0.2615,-0.2594,-0.2594,-0.2595,0,0,0,0,0,0,0,0,0,0,0,0,0,-0.2522,-0.2478,-0.2593,-0.2592,-0.2592,-0.264,-0.2641,-0.2641,-0.2619,-0.2617,-0.2616,-0.2615,-0.2594,-0.2594,-0.2595,-0.2626,0,0,-0.2596,-0.2596,0,0,0,0,0,0,0,0,-0.252,-0.2526,-0.2591,-0.2592,-0.2593,-0.2625,-0.2591,-0.2634,-0.2619,-0.2606,-0.2616,-0.2614,-0.2601,-0.2601,-0.2609,-0.2625,-0.2624,-0.2596,-0.2596,-0.2597,-0.2597,0,0,0,0,0,0,0,-0.2517,-0.2524,-0.2609,-0.2592,-0.2593,-0.2586,-0.259,-0.2599,-0.2607,-0.2607,-0.2606,-0.2616,-0.26,-0.2609,-0.2609,-0.2623,-0.2596,-0.2597,-0.2597,-0.2597,-0.2655,-0.2657,0,0,0,0,0,0,-0.2519,-0.2522,-0.2608,-0.2611,-0.2555,-0.2589,-0.2594,-0.2613,-0.2608,-0.2608,-0.2617,-0.2615,-0.2609,-0.2608,-0.2608,-0.2634,-0.2597,-0.2597,-0.2597,-0.2654,-0.2656,-0.2657,0,0,0,0,0,0,-0.2517,-0.2527,-0.2606,-0.2569,-0.2578,-0.2593,-0.2614,-0.2615,-0.2621,-0.2618,-0.2615,-0.2622,-0.2608,-0.2607,-0.2621,-0.2633,-0.2597,-0.2598,-0.2653,-0.2655,-0.2656,-0.2693,0,0,0,0,0,0,-0.2513,-0.2526,-0.2536,-0.2569,-0.2581,-0.2642,-0.2616,-0.2617,-0.2631,-0.2628,-0.2621,-0.2618,-0.2607,-0.262,-0.2621,-0.2633,-0.2598,-0.2651,-0.2654,-0.2656,-0.269,-0.2696,-0.2701,0,0,0,0,0,-0.2509,-0.2534,-0.2536,-0.2546,-0.2596,-0.2643,-0.2649,-0.2651,-0.2633,-0.2648,-0.2639,-0.2618,-0.2636,-0.2622,-0.2623,-0.2635,-0.265,-0.2653,-0.2656,-0.2688,-0.2695,-0.2701,0,0,0,0,0,0,-0.2486,-0.2536,-0.2538,-0.2576,-0.2609,-0.2641,-0.2654,-0.2656,-0.2663,-0.2655,-0.2638,-0.2636,-0.2653,-0.2645,-0.263,-0.2661,-0.2638,-0.2642,-0.2663,-0.2669,-0.2675,-0.2667,-0.2598,0,0,0,0,0,-0.2488,-0.2518,-0.2563,-0.2591,-0.261,-0.2631,-0.2647,-0.2656,-0.267,-0.2671,-0.2667,-0.2663,-0.2669,-0.2668,-0.2676,-0.2694,-0.2678,-0.2703,-0.2708,-0.2713,-0.2709,-0.2701,-0.2705,-0.2667,-0.2667,-0.2666,0,0,-0.2484,-0.2517,-0.2531,-0.2588,-0.2609,-0.2647,-0.2636,-0.2672,-0.2693,-0.2669,-0.2688,-0.2686,-0.2681,-0.2701,-0.2707,-0.2692,-0.2718,-0.2716,-0.272,-0.2714,-0.2705,-0.2708,-0.2711,-0.2669,-0.2668,-0.2668,0,0,-0.2498,-0.2524,-0.2555,-0.2591,-0.2637,-0.2658,-0.267,-0.2708,-0.2713,-0.2742,-0.2726,-0.273,-0.2744,-0.2739,-0.2738,-0.2779,-0.2751,-0.2785,-0.28,-0.2793,-0.2796,-0.2798,-0.2788,-0.2789,-0.2782,-0.2783,-0.2783,0,-0.2487,-0.2536,-0.257,-0.2613,-0.2639,-0.2664,-0.2701,-0.2722,-0.2756,-0.2761,-0.2751,-0.2767,-0.276,-0.2774,-0.2785,-0.2789,-0.278,-0.2773,-0.2798,-0.28,-0.2801,-0.2791,-0.2791,-0.2785,-0.2784,-0.2784,-0.2784,0,-0.2527,-0.2567,-0.259,-0.2649,-0.2684,-0.2723,-0.2763,-0.2788,-0.2792,-0.2805,-0.2824,-0.2819,-0.282,-0.2825,-0.2815,-0.2828,-0.2818,-0.2808,-0.2777,-0.2807,-0.2795,-0.2794,-0.2788,-0.2787,-0.2786,-0.2786,0,0,-0.2491,-0.2597,-0.2602,-0.2633,-0.2706,-0.2737,-0.2782,-0.2824,-0.2839,-0.2861,-0.2871,-0.2882,-0.287,-0.2868,-0.2858,-0.2851,-0.2853,-0.2834,-0.2833,-0.2816,-0.2838,-0.2763,-0.2755,-0.2848,-0.2848,-0.2848,-0.2827,0,-0.2504,-0.2586,-0.2636,-0.2697,-0.2738,-0.2782,-0.282,-0.2859,-0.2879,-0.2897,-0.2892,-0.2902,-0.289,-0.2886,-0.288,-0.2863,-0.2853,-0.2859,-0.2818,-0.2817,-0.2739,-0.2752,-0.2534,-0.2491,-0.2826,-0.2826,-0.2826,0,-0.2512,-0.2571,-0.2639,-0.2722,-0.2742,-0.2779,-0.2832,-0.2872,-0.2909,-0.2922,-0.2932,-0.293,-0.2929,-0.2908,-0.289,-0.2896,-0.2868,-0.2851,-0.2849,-0.2762,-0.2741,-0.2515,-0.2478,-0.2825,-0.2825,-0.2825,-0.2825,0,-0.2459,-0.2561,-0.2612,-0.2643,-0.2745,-0.2771,-0.2814,-0.2868,-0.2899,-0.293,-0.2947,-0.295,-0.2946,-0.2923,-0.2888,-0.2891,-0.2856,-0.2854,-0.2763,-0.2758,-0.2553,-0.2529,-0.2832,-0.2832,-0.2832,-0.2832,-0.2832,0,-0.2446,-0.2482,-0.259,-0.2619,-0.2667,-0.2743,-0.2787,-0.283,-0.2887,-0.2911,-0.2946,-0.2954,-0.2949,-0.2931,-0.2895,-0.2822,-0.2861,-0.276,-0.2744,-0.2562,-0.254,-0.2814,-0.2812,-0.2831,-0.2831,-0.2832,-0.2832,0,-0.2375,-0.2453,-0.2512,-0.2618,-0.2645,-0.2674,-0.2772,-0.2796,-0.2868,-0.2898,-0.2908,-0.2956,-0.2928,-0.2911,-0.2869,-0.2821,-0.2765,-0.2727,-0.2514,-0.2472,-0.2672,-0.2673,-0.2628,-0.2625,-0.2623,-0.262,-0.2619,0,-0.2347,-0.2372,-0.2485,-0.2505,-0.2549,-0.2612,-0.2647,-0.2758,-0.2791,-0.2885,-0.2882,-0.2897,-0.2853,-0.2781,-0.2691,-0.2604,-0.2693,-0.2379,-0.2342,-0.2661,-0.265,-0.2655,-0.2659,-0.2091,-0.2085,-0.208,-0.2076,0,-0.2265,-0.2306,-0.2347,-0.2406,-0.2448,-0.2508,-0.2573,-0.2609,-0.2723,-0.2754,-0.2769,-0.2745,-0.2683,-0.2486,-0.2398,-0.2325,-0.2377,-0.2279,-0.2647,-0.2185,-0.2155,-0.2144,-0.2165,-0.2033,-0.2037,-0.204,-0.2043,-0.2044,-0.217,-0.2176,-0.2225,-0.2265,-0.232,-0.2358,-0.235,-0.2427,-0.246,-0.2446,-0.2555,-0.2423,-0.24,-0.2121,-0.2029,-0.1951,-0.2113,-0.2019,-0.2034,-0.2053,-0.2004,-0.1972,-0.1806,-0.1809,-0.1811,-0.1814,-0.1816,0,-0.2017,-0.2039,-0.2073,-0.2112,-0.2102,-0.2198,-0.2247,-0.2179,-0.2144,-0.2166,-0.213,-0.1873,-0.1763,-0.1741,-0.155,-0.154,-0.152,-0.1486,-0.1453,-0.1495,-0.1533,-0.1457,-0.1115,-0.1113,-0.1111,-0.1109,0,0,-0.1931,-0.1896,-0.1925,-0.1862,-0.1891,-0.1824,-0.1815,-0.1733,-0.1689,-0.1551,-0.1475,-0.16,-0.164,-0.1355,-0.1318,-0.1176,-0.1315,-0.1116,-0.1672,-0.1669,-0.1705,-0.183,-0.176,0,0,0,0,0]},{"header":{"parameterUnit":"m.s-1","parameterCategory":2,"la1":30.2991,"la2":30.254,"lo1":-89.0895,"lo2":-89.0444,"dy":0.0017,"dx":0.0017,"nx":28,"ny":28,"refTime":"2025-04-17T03:00:00:Z","depth":"2","parameterNumber":3,"parameterNumberName":"V-component_of_CURRENTS"},"data":[0,0,0,0,0,0,0,0,0,0,0,0,0,0,0,0,0,0,0,0,0,0,0,0,0,0,0,0,0,0,0,0,0,0,0,0,0,0,0,0,0,0,0,0,0,0,0,0,0,0,0,0,0,0,0,0,0,0,-0.015,-0.0149,0,-0.0063,-0.0062,-0.0061,0.0005,0.0005,0.0006,0.0006,0.0142,0.0145,0.0149,0,0,0,0,0,0,0,0,0,0,0,0,0,-0.0199,-0.0198,-0.015,-0.0149,-0.0148,-0.0063,-0.0062,-0.006,0.0005,0.0005,0.0006,0.0006,0.0141,0.0145,0.0149,0,0,0,0,0,0,0,0,0,0,0,0,0,-0.015,-0.0198,-0.015,-0.0107,-0.0102,-0.0064,-0.0062,-0.006,0.0005,0.0005,0.0006,0.0006,0.014,0.0145,0.0149,0.0167,0,0,0.0164,0.0166,0,0,0,0,0,0,0,0,-0.0152,-0.0148,-0.0114,-0.011,-0.0105,-0.0041,-0.0029,0.0018,0.0005,-0.0034,0.0006,0.0007,0.0084,0.0093,0.011,0.0174,0.0179,0.0165,0.0168,0.017,0.0171,0,0,0,0,0,0,0,-0.0156,-0.0151,-0.0113,-0.0113,-0.0107,-0.0071,-0.0064,-0.002,0.0023,-0.003,-0.0026,-0.002,0.0087,0.0105,0.0114,0.0181,0.0165,0.0169,0.0172,0.0174,0.0283,0.0283,0,0,0,0,0,0,-0.0175,-0.0154,-0.0116,-0.0111,-0.013,-0.0071,-0.0063,-0.006,0.0022,0.0034,-0.002,-0.0017,0.0097,0.0108,0.0119,0.0149,0.017,0.0174,0.0177,0.0284,0.0283,0.0283,0,0,0,0,0,0,-0.0176,-0.0172,-0.012,-0.0132,-0.0123,-0.0072,-0.0069,-0.0059,-0.004,0.0028,0.0042,-0.0012,0.0098,0.0112,0.0156,0.0155,0.0176,0.0181,0.0284,0.0284,0.0283,0.0207,0,0,0,0,0,0,-0.0178,-0.0174,-0.0181,-0.0134,-0.0123,-0.0108,-0.0069,-0.0058,-0.0038,-0.0033,0.004,0.0053,0.0099,0.0149,0.0161,0.0162,0.0185,0.0284,0.0284,0.0283,0.0209,0.0204,0.02,0,0,0,0,0,-0.018,-0.0199,-0.0182,-0.0177,-0.0134,-0.0109,-0.01,-0.0059,-0.0039,-0.0038,0.0015,0.0051,0.0158,0.0152,0.0167,0.0169,0.0284,0.0284,0.0283,0.0211,0.0205,0.02,0,0,0,0,0,0,-0.0226,-0.0192,-0.0173,-0.018,-0.0151,-0.0098,-0.0096,-0.0066,-0.0024,-0.0017,0.0051,0.0068,0.0105,0.0147,0.014,0.0201,0.0227,0.023,0.0167,0.0161,0.0157,0.0144,0.0189,0,0,0,0,0,-0.024,-0.0243,-0.0201,-0.0208,-0.0196,-0.0146,-0.0131,-0.0103,-0.006,-0.004,0.0012,0.0069,0.0116,0.0145,0.0191,0.0225,0.0273,0.0237,0.0232,0.0227,0.0228,0.0292,0.0293,0.0283,0.0283,0.0283,0,0,-0.026,-0.0242,-0.0243,-0.0217,-0.0189,-0.0182,-0.0135,-0.012,-0.0107,-0.0032,-0.0,0.0051,0.012,0.0157,0.0178,0.0193,0.0255,0.0227,0.0223,0.0226,0.0292,0.0293,0.0294,0.0283,0.0283,0.0283,0,0,-0.0304,-0.0284,-0.0301,-0.0281,-0.0249,-0.0215,-0.0215,-0.0165,-0.0136,-0.0101,-0.0043,0.0007,0.0076,0.0129,0.0164,0.0161,0.0223,0.0174,0.0146,0.0208,0.0209,0.0211,0.0269,0.0277,0.0176,0.0176,0.0176,0,-0.0332,-0.0343,-0.0303,-0.0311,-0.0299,-0.0235,-0.0246,-0.0207,-0.0148,-0.0122,-0.0103,0.0011,0.0064,0.0125,0.0123,0.0151,0.0194,0.0159,0.0201,0.0204,0.0207,0.0266,0.0276,0.0173,0.0173,0.0173,0.0174,0,-0.0384,-0.0391,-0.0399,-0.0385,-0.0366,-0.0366,-0.0309,-0.0282,-0.0238,-0.019,-0.0128,-0.0049,0.0021,0.0045,0.0084,0.0134,0.016,0.0181,0.0211,0.0203,0.0267,0.0278,0.0167,0.0169,0.017,0.0171,0,0,-0.0453,-0.0442,-0.0444,-0.045,-0.0406,-0.0398,-0.037,-0.0324,-0.0301,-0.0232,-0.0193,-0.0106,-0.0055,-0.0011,0.0051,0.0108,0.0165,0.0147,0.0152,0.0197,0.0301,0.0349,0.0367,0.0191,0.0193,0.0194,0.0335,0,-0.0508,-0.0548,-0.0515,-0.0538,-0.0552,-0.0482,-0.0461,-0.0405,-0.0343,-0.0287,-0.0188,-0.0129,-0.0077,-0.0043,0.0021,0.0129,0.0191,0.0125,0.031,0.0316,0.0353,0.038,0.0318,0.0441,0.0346,0.0348,0.0349,0,-0.0572,-0.0589,-0.0631,-0.0616,-0.0613,-0.0608,-0.0555,-0.0526,-0.0423,-0.0372,-0.0287,-0.0202,-0.0099,-0.006,0.0121,0.0075,0.0178,0.0263,0.0271,0.0352,0.0385,0.0437,0.0465,0.0369,0.0367,0.0366,0.0364,0,-0.0653,-0.0666,-0.0703,-0.0701,-0.0674,-0.0669,-0.0642,-0.0557,-0.0527,-0.0421,-0.038,-0.0246,-0.0169,-0.0031,0.0149,0.0136,0.0351,0.0358,0.0503,0.0507,0.0511,0.0513,0.0486,0.0486,0.0486,0.0485,0.0485,0,-0.073,-0.0757,-0.0747,-0.0771,-0.0803,-0.0746,-0.0747,-0.0695,-0.061,-0.0566,-0.0433,-0.0358,-0.0158,-0.0005,0.0142,0.0364,0.0352,0.051,0.0553,0.0482,0.0481,0.0461,0.0456,0.0491,0.0489,0.0488,0.0487,0,-0.0817,-0.081,-0.0857,-0.085,-0.085,-0.0872,-0.0833,-0.0822,-0.0728,-0.0664,-0.063,-0.0433,-0.0222,-0.0013,0.0235,0.0365,0.0562,0.0643,0.0548,0.0578,0.0676,0.0665,0.0815,0.0818,0.0821,0.0823,0.0825,0,-0.0867,-0.0905,-0.0935,-0.0967,-0.0969,-0.0983,-0.0987,-0.0903,-0.0869,-0.0699,-0.0665,-0.0444,-0.0256,0.0127,0.0375,0.0654,0.065,0.0761,0.0732,0.0686,0.0713,0.0698,0.0684,0.0703,0.0704,0.0705,0.0705,0,-0.0964,-0.0973,-0.1009,-0.1083,-0.111,-0.1124,-0.1106,-0.1093,-0.0966,-0.0855,-0.0664,-0.0495,-0.0131,0.0177,0.0527,0.0673,0.0708,0.0784,0.0776,0.0629,0.0592,0.0614,0.0602,0.071,0.0709,0.0709,0.0709,0.0709,-0.1025,-0.1077,-0.1126,-0.1191,-0.1227,-0.1235,-0.1209,-0.115,-0.1052,-0.0842,-0.0681,-0.038,-0.0123,0.0392,0.0611,0.0807,0.0814,0.0856,0.0849,0.0843,0.0804,0.0774,0.0918,0.0919,0.092,0.092,0.0921,0,-0.1094,-0.1144,-0.1224,-0.128,-0.1329,-0.131,-0.1258,-0.1218,-0.1074,-0.0829,-0.0587,-0.0274,0.01,0.0367,0.0683,0.0881,0.0835,0.0901,0.0792,0.0786,0.0782,0.0735,0.0834,0.0834,0.0835,0.0835,0,0,-0.1128,-0.1218,-0.126,-0.1353,-0.1378,-0.1358,-0.1302,-0.1272,-0.1096,-0.0819,-0.0537,-0.0202,0.0124,0.0331,0.0547,0.0705,0.0695,0.0712,0.0759,0.0597,0.059,0.0732,0.0652,0,0,0,0,0]}],[{"header":{"parameterUnit":"m.s-1","parameterCategory":2,"la1":30.2991,"la2":30.254,"lo1":-89.0895,"lo2":-89.0444,"dy":0.0017,"dx":0.0017,"nx":28,"ny":28,"refTime":"2025-04-17T03:00:00:Z","depth":"4","parameterNumber":2,"parameterNumberName":"U-component_of_CURRENTS"},"data":[0,0,0,0,0,0,0,0,0,0,0,0,0,0,0,0,0,0,0,0,0,0,0,0,0,0,0,0,0,0,0,0,0,0,0,0,0,0,0,0,0,0,0,0,0,0,0,0,0,0,0,0,0,0,0,0,0,0,-0.1792,-0.1793,0,-0.1877,-0.1878,-0.1879,-0.1925,-0.1925,-0.1925,-0.1925,-0.1998,-0.1999,-0.2001,0,0,0,0,0,0,0,0,0,0,0,0,0,-0.167,-0.1672,-0.1792,-0.1793,-0.1794,-0.1877,-0.1878,-0.1879,-0.1924,-0.1925,-0.1925,-0.1925,-0.1997,-0.1999,-0.2001,0,0,0,0,0,0,0,0,0,0,0,0,0,-0.1734,-0.1672,-0.1792,-0.1828,-0.1833,-0.1877,-0.1878,-0.1879,-0.1924,-0.1925,-0.1925,-0.1926,-0.1996,-0.1999,-0.2001,-0.2009,0,0,-0.2009,-0.201,0,0,0,0,0,0,0,0,-0.173,-0.1738,-0.1822,-0.1826,-0.1831,-0.1892,-0.1862,-0.1923,-0.1924,-0.1888,-0.1925,-0.1926,-0.1962,-0.1967,-0.198,-0.2012,-0.2015,-0.2009,-0.2011,-0.2012,-0.2013,0,0,0,0,0,0,0,-0.1726,-0.1735,-0.1824,-0.1823,-0.1829,-0.1841,-0.185,-0.1873,-0.192,-0.1891,-0.1895,-0.1907,-0.1964,-0.1978,-0.1982,-0.2017,-0.2009,-0.2011,-0.2013,-0.2014,-0.2142,-0.2144,0,0,0,0,0,0,-0.1719,-0.1731,-0.1821,-0.1826,-0.1782,-0.1843,-0.1853,-0.1871,-0.192,-0.1929,-0.1907,-0.1909,-0.1973,-0.1979,-0.1985,-0.2072,-0.2012,-0.2014,-0.2016,-0.214,-0.2142,-0.2144,0,0,0,0,0,0,-0.1716,-0.1726,-0.1818,-0.1781,-0.1794,-0.1845,-0.1864,-0.1872,-0.1916,-0.1933,-0.1941,-0.1946,-0.1974,-0.1981,-0.2038,-0.2073,-0.2015,-0.2018,-0.2138,-0.2141,-0.2143,-0.2199,0,0,0,0,0,0,-0.1712,-0.1725,-0.1748,-0.1781,-0.1796,-0.1868,-0.1864,-0.1874,-0.1922,-0.1927,-0.1968,-0.1973,-0.1975,-0.2034,-0.204,-0.2075,-0.202,-0.2135,-0.2139,-0.2142,-0.2195,-0.2203,-0.221,0,0,0,0,0,-0.1707,-0.1736,-0.1749,-0.1761,-0.1823,-0.187,-0.1879,-0.1914,-0.1924,-0.1953,-0.1983,-0.1974,-0.2061,-0.2038,-0.2045,-0.2081,-0.2134,-0.2138,-0.2142,-0.2191,-0.2201,-0.221,0,0,0,0,0,0,-0.1697,-0.1744,-0.1759,-0.1802,-0.1844,-0.1879,-0.1913,-0.1933,-0.1979,-0.1992,-0.2,-0.2008,-0.207,-0.2071,-0.2046,-0.2129,-0.2095,-0.2101,-0.213,-0.214,-0.2148,-0.2139,-0.2022,0,0,0,0,0,-0.1705,-0.174,-0.1783,-0.1821,-0.1844,-0.1883,-0.1912,-0.1939,-0.1977,-0.1999,-0.2029,-0.2059,-0.2088,-0.2111,-0.2138,-0.2185,-0.2165,-0.2213,-0.2221,-0.2227,-0.2226,-0.2227,-0.2234,-0.2158,-0.2158,-0.2158,0,0,-0.1711,-0.1743,-0.1764,-0.1822,-0.1856,-0.1901,-0.1903,-0.1959,-0.2002,-0.1999,-0.2074,-0.2093,-0.2109,-0.2163,-0.219,-0.2171,-0.224,-0.2233,-0.2238,-0.2233,-0.2232,-0.2239,-0.2245,-0.2161,-0.2161,-0.216,0,0,-0.1733,-0.1772,-0.1807,-0.1848,-0.191,-0.1936,-0.1959,-0.2016,-0.2051,-0.2117,-0.2124,-0.2163,-0.222,-0.2231,-0.2242,-0.2311,-0.2283,-0.2329,-0.2362,-0.2363,-0.2368,-0.2373,-0.2356,-0.2359,-0.2331,-0.2331,-0.2331,0,-0.1741,-0.1791,-0.1826,-0.1872,-0.1912,-0.1955,-0.2003,-0.2045,-0.2116,-0.2144,-0.2153,-0.2232,-0.2247,-0.2292,-0.2319,-0.2327,-0.2319,-0.2321,-0.2371,-0.2375,-0.2379,-0.236,-0.2362,-0.2334,-0.2334,-0.2333,-0.2333,0,-0.178,-0.1835,-0.1863,-0.1933,-0.1979,-0.2033,-0.2089,-0.2145,-0.2189,-0.222,-0.2291,-0.2313,-0.2351,-0.2369,-0.2366,-0.2409,-0.2391,-0.238,-0.234,-0.2389,-0.2367,-0.2368,-0.2339,-0.2337,-0.2336,-0.2336,0,0,-0.1753,-0.1868,-0.1881,-0.1927,-0.2019,-0.2058,-0.2137,-0.2207,-0.2253,-0.2318,-0.2366,-0.242,-0.2427,-0.2439,-0.2444,-0.2449,-0.2469,-0.2433,-0.2432,-0.2405,-0.2464,-0.2299,-0.2284,-0.247,-0.247,-0.2471,-0.2437,0,-0.1775,-0.1867,-0.1922,-0.2014,-0.2063,-0.2133,-0.2197,-0.2267,-0.2323,-0.238,-0.2407,-0.2456,-0.2455,-0.2476,-0.2485,-0.2476,-0.2476,-0.2478,-0.243,-0.2428,-0.2266,-0.228,-0.2473,-0.2437,-0.2437,-0.2438,-0.2438,0,-0.1783,-0.1849,-0.1943,-0.2056,-0.2084,-0.2149,-0.2251,-0.2314,-0.2394,-0.2435,-0.2482,-0.2501,-0.2533,-0.2518,-0.2521,-0.2526,-0.2502,-0.2486,-0.2484,-0.2307,-0.2264,-0.238,-0.2439,-0.2439,-0.2439,-0.2439,-0.2439,0,-0.173,-0.1857,-0.1935,-0.1976,-0.2108,-0.2168,-0.2239,-0.2333,-0.2384,-0.2466,-0.2499,-0.254,-0.2559,-0.2549,-0.2519,-0.253,-0.2497,-0.25,-0.2327,-0.2315,-0.245,-0.2445,-0.2491,-0.2491,-0.2491,-0.2491,-0.2491,0,-0.1711,-0.1778,-0.1924,-0.1967,-0.2055,-0.2153,-0.2244,-0.2316,-0.2407,-0.2445,-0.252,-0.2531,-0.257,-0.2555,-0.2526,-0.2411,-0.2499,-0.2322,-0.2291,-0.2475,-0.2474,-0.245,-0.2446,-0.249,-0.249,-0.249,-0.249,0,-0.1637,-0.1738,-0.1834,-0.1987,-0.2036,-0.2098,-0.2245,-0.2289,-0.2394,-0.2443,-0.2468,-0.2532,-0.2501,-0.2503,-0.2473,-0.2393,-0.2318,-0.2256,-0.244,-0.2422,-0.2139,-0.2139,-0.2062,-0.2056,-0.205,-0.2046,-0.2042,0,-0.1607,-0.1651,-0.1825,-0.1872,-0.195,-0.2059,-0.2119,-0.2262,-0.23,-0.2411,-0.2404,-0.2429,-0.2443,-0.2251,-0.2287,-0.22,-0.2176,-0.2129,-0.2146,-0.2115,-0.2094,-0.2102,-0.2108,-0.2034,-0.2033,-0.2031,-0.203,0,-0.1534,-0.1612,-0.1683,-0.1783,-0.1867,-0.1952,-0.2051,-0.2065,-0.2197,-0.2319,-0.226,-0.222,-0.2176,-0.2127,-0.2064,-0.2012,-0.2157,-0.2074,-0.2086,-0.2101,-0.208,-0.2066,-0.2079,-0.2012,-0.2014,-0.2016,-0.2017,0,-0.1468,-0.1495,-0.1588,-0.1656,-0.1755,-0.179,-0.1878,-0.1905,-0.1962,-0.2087,-0.2057,-0.2077,-0.2144,-0.2027,-0.1974,-0.19,-0.1881,-0.1825,-0.1849,-0.187,-0.1821,-0.1768,-0.1563,0,0,0,0,0,-0.1382,-0.1388,-0.1445,-0.1504,-0.1592,-0.1635,-0.1791,-0.1875,-0.2009,-0.1908,-0.1976,-0.1918,-0.1832,-0.185,-0.1729,-0.1897,-0.1896,-0.1753,-0.1849,-0.191,-0.1931,-0.1891,0,0,0,0,0,0,-0.132,-0.1366,-0.1388,-0.135,-0.1336,-0.1412,-0.1495,-0.1599,-0.1564,-0.1701,-0.1658,-0.1766,-0.1707,-0.1825,-0.166,-0.1669,-0.1687,-0.1784,-0.1778,-0.1898,-0.1917,-0.1934,-0.1901,0,0,0,0,0]},{"header":{"parameterUnit":"m.s-1","parameterCategory":2,"la1":30.2991,"la2":30.254,"lo1":-89.0895,"lo2":-89.0444,"dy":0.0017,"dx":0.0017,"nx":28,"ny":28,"refTime":"2025-04-17T03:00:00:Z","depth":"4","parameterNumber":3,"parameterNumberName":"V-component_of_CURRENTS"},"data":[0,0,0,0,0,0,0,0,0,0,0,0,0,0,0,0,0,0,0,0,0,0,0,0,0,0,0,0,0,0,0,0,0,0,0,0,0,0,0,0,0,0,0,0,0,0,0,0,0,0,0,0,0,0,0,0,0,0,-0.0206,-0.0205,0,-0.0149,-0.0148,-0.0147,-0.0102,-0.0102,-0.0101,-0.0101,0.0005,0.0007,0.001,0,0,0,0,0,0,0,0,0,0,0,0,0,-0.0228,-0.0228,-0.0206,-0.0205,-0.0205,-0.0149,-0.0148,-0.0147,-0.0102,-0.0102,-0.0101,-0.0101,0.0004,0.0007,0.001,0,0,0,0,0,0,0,0,0,0,0,0,0,-0.0198,-0.0228,-0.0206,-0.0177,-0.0174,-0.0149,-0.0148,-0.0147,-0.0102,-0.0102,-0.0101,-0.0101,0.0003,0.0007,0.001,0.0026,0,0,0.0022,0.0024,0,0,0,0,0,0,0,0,-0.02,-0.0197,-0.0182,-0.0179,-0.0176,-0.0134,-0.0117,-0.0087,-0.0102,-0.0127,-0.0101,-0.0101,-0.0039,-0.0031,-0.0019,0.0031,0.0036,0.0022,0.0025,0.0026,0.0028,0,0,0,0,0,0,0,-0.0202,-0.0199,-0.0181,-0.0181,-0.0177,-0.0151,-0.0146,-0.0111,-0.0084,-0.0125,-0.0122,-0.0119,-0.0036,-0.0023,-0.0017,0.0037,0.0022,0.0026,0.0028,0.003,0.0127,0.0128,0,0,0,0,0,0,-0.0216,-0.0201,-0.0183,-0.018,-0.0189,-0.0151,-0.0146,-0.0146,-0.0085,-0.0076,-0.012,-0.0117,-0.003,-0.0021,-0.0013,0.002,0.0026,0.003,0.0032,0.0127,0.0128,0.0128,0,0,0,0,0,0,-0.0216,-0.0215,-0.0185,-0.019,-0.0185,-0.0152,-0.0152,-0.0145,-0.0133,-0.0082,-0.0071,-0.0114,-0.0029,-0.0018,0.0018,0.0024,0.0032,0.0035,0.0127,0.0127,0.0128,0.008,0,0,0,0,0,0,-0.0217,-0.0215,-0.0223,-0.0191,-0.0185,-0.0179,-0.0152,-0.0144,-0.0132,-0.0129,-0.0074,-0.0063,-0.0028,0.0012,0.0022,0.003,0.0038,0.0126,0.0127,0.0128,0.0081,0.0078,0.0076,0,0,0,0,0,-0.0218,-0.0234,-0.0224,-0.0222,-0.0196,-0.0179,-0.0174,-0.0147,-0.0133,-0.0133,-0.0091,-0.0065,0.0023,0.0015,0.0027,0.0036,0.0126,0.0127,0.0128,0.0082,0.0079,0.0076,0,0,0,0,0,0,-0.0249,-0.023,-0.0218,-0.0227,-0.0208,-0.0173,-0.0173,-0.0152,-0.012,-0.0115,-0.0063,-0.005,-0.0017,0.0016,0.0006,0.0066,0.008,0.0083,0.0041,0.0039,0.0036,0.0029,0.0042,0,0,0,0,0,-0.026,-0.0266,-0.0239,-0.0247,-0.024,-0.0206,-0.0197,-0.0178,-0.0146,-0.0132,-0.0092,-0.0046,-0.0005,0.002,0.0057,0.0089,0.0127,0.0104,0.0101,0.0099,0.0101,0.0165,0.0169,0.013,0.013,0.013,0,0,-0.0275,-0.0265,-0.0269,-0.0254,-0.0236,-0.0229,-0.02,-0.019,-0.0177,-0.0124,-0.0096,-0.0057,0.0,0.0036,0.0055,0.0065,0.0128,0.01,0.0097,0.0101,0.0166,0.017,0.0174,0.013,0.013,0.013,0,0,-0.0306,-0.0298,-0.0311,-0.0297,-0.0277,-0.0254,-0.0254,-0.0219,-0.0197,-0.0169,-0.0123,-0.0079,-0.0024,0.0025,0.0056,0.0065,0.0109,0.0073,0.0062,0.0124,0.0128,0.0132,0.0173,0.0181,0.0078,0.0078,0.0077,0,-0.0326,-0.0335,-0.0312,-0.0316,-0.0308,-0.0267,-0.0272,-0.0243,-0.02,-0.0176,-0.0168,-0.0069,-0.0026,0.0038,0.004,0.006,0.0094,0.0065,0.0121,0.0125,0.013,0.0172,0.0181,0.0075,0.0076,0.0076,0.0076,0,-0.0359,-0.0366,-0.0372,-0.0361,-0.0349,-0.0348,-0.0307,-0.0286,-0.0255,-0.0217,-0.016,-0.0097,-0.0036,-0.0014,0.0016,0.0074,0.0085,0.0104,0.0124,0.0131,0.0175,0.0185,0.0072,0.0073,0.0074,0.0074,0,0,-0.0406,-0.0398,-0.0401,-0.0403,-0.0373,-0.0367,-0.0341,-0.0301,-0.0279,-0.0227,-0.0188,-0.0111,-0.0073,-0.0035,0.0014,0.0071,0.0129,0.0096,0.01,0.0131,0.0252,0.0218,0.0226,0.0156,0.0158,0.0159,0.0264,0,-0.0439,-0.0462,-0.0442,-0.0455,-0.046,-0.0413,-0.0393,-0.0348,-0.03,-0.0252,-0.0169,-0.0118,-0.0081,-0.0053,0.001,0.0098,0.0156,0.0098,0.0247,0.0251,0.0216,0.0238,0.0165,0.0272,0.0275,0.0276,0.0278,0,-0.0477,-0.0487,-0.0513,-0.0498,-0.0496,-0.0495,-0.0451,-0.0426,-0.034,-0.03,-0.0228,-0.0162,-0.0069,-0.0044,0.0114,0.0073,0.0156,0.0226,0.0232,0.0226,0.0237,0.027,0.0298,0.0296,0.0295,0.0293,0.0292,0,-0.0525,-0.0533,-0.0557,-0.0555,-0.0534,-0.0532,-0.0514,-0.0446,-0.0419,-0.0331,-0.0299,-0.018,-0.0121,0.0,0.0136,0.013,0.0306,0.0319,0.0371,0.037,0.0389,0.0384,0.0437,0.0437,0.0437,0.0437,0.0436,0,-0.0564,-0.0584,-0.0588,-0.0603,-0.0627,-0.0587,-0.0588,-0.0546,-0.0479,-0.0441,-0.0335,-0.0275,-0.0106,0.0015,0.0134,0.0277,0.0308,0.0374,0.04,0.0364,0.0356,0.0396,0.039,0.0441,0.044,0.0439,0.0438,0,-0.0612,-0.0613,-0.0648,-0.065,-0.0657,-0.0675,-0.0656,-0.0643,-0.0573,-0.052,-0.0493,-0.0338,-0.0181,-0.0016,0.019,0.0266,0.0412,0.0458,0.0396,0.0416,0.0435,0.0425,0.0526,0.0526,0.0526,0.0526,0.0526,0,-0.0636,-0.0663,-0.0703,-0.0735,-0.0745,-0.0763,-0.0769,-0.0707,-0.0677,-0.0552,-0.0522,-0.0363,-0.0248,0.0017,0.018,0.04,0.043,0.0493,0.0476,0.0432,0.0447,0.0437,0.0428,0.0525,0.0525,0.0525,0.0525,0,-0.0687,-0.0711,-0.0739,-0.0813,-0.0845,-0.0862,-0.0857,-0.0839,-0.0743,-0.0682,-0.0526,-0.0368,-0.0192,0.0014,0.0181,0.0339,0.0443,0.0492,0.0494,0.0479,0.0432,0.0445,0.0436,0.0525,0.0525,0.0525,0.0525,0,-0.0729,-0.0766,-0.082,-0.0877,-0.0931,-0.0947,-0.0929,-0.0861,-0.081,-0.0645,-0.0596,-0.0383,-0.0243,-0.0017,0.0139,0.0284,0.0321,0.0358,0.0367,0.0369,0.0285,0.0201,0.025,0,0,0,0,0,-0.0763,-0.0811,-0.0877,-0.0938,-0.0994,-0.1018,-0.0981,-0.0936,-0.0837,-0.0733,-0.0653,-0.0476,-0.0211,-0.0087,0.0053,0.0107,0.0315,0.0271,0.0353,0.0521,0.0522,0.0446,0,0,0,0,0,0,-0.0786,-0.0857,-0.0887,-0.0984,-0.1037,-0.1079,-0.1056,-0.0981,-0.0891,-0.077,-0.062,-0.0487,-0.0229,-0.0312,0.0034,0.0082,0.0146,0.0414,0.0416,0.0521,0.0522,0.0522,0.0444,0,0,0,0,0]}]]